Probability
0 0 1 4 5 6 7 5 3 1 1 1 1 1 1 0 0 0 0 0 0 0 0 0 0 0 0 0 1 0 0 0 0 0 0 0 0 0 0 0 0 0 0
0 0 1 3 5 6 7 6 4 2 1 1 1 2 3 2 1 0 0 0 0 0 0 0 0 0 0 0 1 0 0 0 0 0 0 0 0 0 0 0 0 0 0
0 0 1 2 4 5 5 5 4 2 1 1 2 4 5 4 2 1 0 0 0 0 0 0 0 0 0 0 0 0 0 0 0 0 0 0 0 0 0 0 0 0 0
0 0 0 1 2 4 4 3 2 1 1 2 3 5 6 6 4 1 0 0 0 0 0 0 0 0 0 0 0 0 0 0 0 0 0 0 0 0 0 0 0 0 0
0 0 0 0 1 3 3 2 1 0 1 2 5 6 6 6 5 3 1 0 0 0 0 0 0 0 0 0 0 0 0 0 0 0 0 0 0 0 0 0 0 0 0
0 0 0 0 1 2 2 1 0 0 0 2 4 6 5 5 4 3 2 1 0 0 0 0 0 0 0 0 0 0 0 0 0 0 0 0 0 0 0 0 0 0 0
0 0 0 0 0 1 1 0 1 1 0 1 3 4 3 2 2 3 3 2 1 0 0 0 0 0 0 0 0 0 0 0 0 0 0 0 0 0 0 0 0 0 0
0 0 0 0 0 0 0 0 1 1 0 1 2 2 1 0 1 1 2 2 1 0 0 0 0 0 0 0 0 0 0 0 0 0 0 0 0 0 0 0 0 0 0
0 0 0 0 0 0 0 0 1 1 0 0 1 1 0 0 0 0 1 1 1 0 0 0 0 0 0 0 0 0 0 0 0 0 0 0 0 0 0 0 0 0 0
0 0 0 0 0 0 0 0 0 0 0 0 0 0 0 0 0 0 0 0 0 0 0 0 0 0 0 0 0 0 0 0 0 0 0 0 0 0 0 0 0 0 0
0 0 0 0 0 0 0 0 0 0 0 0 0 0 0 0 0 0 0 0 0 0 0 0 0 0 0 0 0 0 0 0 0 0 0 0 0 0 0 0 0 0 0
0 0 0 0 0 0 0 0 0 0 0 0 0 0 0 0 0 0 0 0 0 0 0 0 0 0 0 0 0 0 0 0 0 0 0 0 0 0 0 0 0 0 0
0 1 1 0 0 1 1 1 0 0 0 0 0 0 0 0 0 0 0 0 0 0 0 0 0 0 0 0 0 0 0 0 0 0 0 0 0 0 0 0 0 0 0
1 1 1 1 1 1 2 2 1 0 0 0 0 0 0 0 0 0 0 0 0 0 0 0 0 0 0 0 0 0 0 0 0 0 0 0 0 0 0 0 0 0 0
0 1 1 2 2 3 3 3 2 1 1 0 0 0 0 0 0 0 0 0 0 0 0 0 0 0 0 0 0 0 0 0 0 0 0 0 0 0 0 0 0 0 0
0 0 0 1 2 3 3 3 3 3 2 1 1 0 0 0 0 0 0 0 0 0 0 0 0 0 0 0 0 0 0 0 0 0 0 0 0 0 0 0 0 0 0
0 0 0 0 1 3 3 2 3 3 3 2 1 0 0 0 0 0 0 0 0 0 0 0 0 0 0 0 0 0 0 0 0 0 0 0 0 0 0 0 0 0 0
0 0 0 0 1 2 3 3 3 4 3 2 1 0 0 0 0 0 0 0 0 0 0 0 0 0 0 0 0 0 0 0 0 0 0 0 0 0 0 0 0 0 0
0 0 0 0 1 2 3 3 4 4 3 1 0 0 0 0 0 0 0 0 0 0 0 0 0 0 0 0 0 0 0 0 0 0 0 0 0 0 0 0 0 0 0
0 0 0 1 2 3 3 3 3 3 1 0 0 0 0 0 0 0 0 0 0 0 0 0 0 0 0 0 0 0 0 0 0 0 0 0 0 0 0 0 0 0 0
0 0 0 1 2 3 3 3 3 3 1 0 0 0 0 0 0 0 0 0 0 0 0 0 0 0 0 0 0 0 0 0 0 0 0 0 0 0 0 0 0 0 0
0 0 0 0 1 2 3 3 3 3 2 1 0 0 0 0 0 0 0 0 0 0 0 0 0 0 0 0 0 0 0 0 0 0 0 0 0 0 0 0 0 0 0
0 0 0 0 0 1 2 3 3 3 2 1 0 0 0 0 0 0 0 0 0 0 0 0 0 0 0 0 0 0 0 0 0 0 0 0 0 0 0 0 0 0 0
0 0 0 0 0 0 1 2 2 1 1 0 0 0 0 0 0 0 0 0 0 0 0 0 0 0 0 0 0 0 0 0 0 0 0 0 0 0 0 0 0 0 0
0 0 0 0 0 0 0 2 2 1 0 0 0 0 0 0 0 0 0 0 0 0 0 0 0 0 0 0 0 0 0 0 0 0 0 0 0 0 0 0 0 0 0
0 0 0 0 0 0 1 2 2 1 0 0 0 0 0 0 0 0 0 0 0 0 0 0 0 0 0 0 0 0 0 0 0 0 0 0 0 0 0 0 0 0 0
Wind_Speed
3 4 3 3 5 6 7 7 7 7 7 7 7 7 7 7 7 7 7 7 7 7 8 9 9 9 9 8 8 8 9 8 8 9 9 9 9 9 9 7 6 7 9
4 5 3 3 5 6 7 7 7 6 7 7 7 7 7 7 7 7 7 6 6 7 7 8 8 8 8 8 8 8 8 8 8 7 7 7 8 8 8 7 6 6 8
5 6 6 3 5 6 6 6 6 6 6 6 7 7 7 6 6 6 6 6 6 6 7 7 7 7 7 7 7 7 7 8 8 6 3 5 7 8 8 7 7 7 6
5 5 5 4 5 6 6 6 6 5 5 6 6 6 6 6 6 6 6 6 6 6 6 6 7 7 7 7 7 7 7 7 6 3 3 4 5 7 7 6 7 6 6
4 5 5 3 5 6 6 6 6 5 5 5 5 6 6 6 6 6 6 6 6 6 6 6 6 6 7 7 7 7 6 6 4 2 4 4 4 6 6 6 6 5 5
4 4 5 3 5 6 6 6 5 5 5 5 5 5 5 6 6 6 6 6 6 6 6 6 6 6 6 6 6 6 6 5 2 3 3 3 4 6 5 5 5 4 4
4 4 4 3 4 4 5 5 5 5 5 5 5 5 5 6 6 6 6 6 6 6 6 6 6 6 6 6 6 6 5 3 2 3 3 3 4 4 3 3 4 3 3
4 4 4 3 3 4 4 4 5 5 5 4 5 5 5 6 6 6 6 6 6 6 6 6 6 5 5 6 6 6 5 2 2 2 3 3 4 3 3 2 2 2 2
3 3 3 3 3 3 4 4 4 5 5 5 5 5 5 6 6 6 6 6 6 6 7 6 6 6 5 5 5 6 6 3 1 2 2 2 4 2 2 2 2 2 2
3 2 2 2 2 3 3 3 4 4 4 5 5 5 5 5 5 5 5 5 6 6 6 6 6 6 6 5 5 5 4 1 2 2 2 3 3 2 2 2 2 2 2
1 1 0 0 1 2 2 2 3 3 3 3 4 4 3 2 2 3 4 5 5 6 5 6 5 5 4 5 5 4 2 1 2 2 2 4 3 2 2 3 3 4 3
1 1 1 0 0 1 1 2 2 2 2 2 2 2 2 1 1 2 4 4 5 5 5 5 5 4 2 2 3 2 1 1 1 1 3 5 3 2 3 3 3 4 4
2 1 2 1 1 1 1 1 1 1 1 1 2 2 1 1 1 1 1 2 2 2 2 3 2 2 2 2 1 1 1 1 1 1 2 4 3 2 3 3 3 3 3
2 2 2 2 1 1 1 1 1 1 1 1 1 2 2 1 1 1 1 1 1 1 1 1 1 2 2 2 1 1 1 1 1 1 2 4 3 3 2 2 3 3 3
3 3 2 2 2 1 1 1 1 2 2 2 2 2 2 2 2 2 1 1 1 1 1 1 1 1 1 1 1 1 1 1 1 1 1 3 4 3 3 2 2 3 3
4 3 2 2 2 2 1 1 1 1 2 2 2 2 2 1 1 2 2 1 1 1 1 1 1 1 1 0 0 1 1 1 1 1 1 1 2 4 3 3 3 3 3
3 3 3 3 2 2 2 2 1 1 1 1 1 2 2 1 2 2 2 2 1 1 1 1 1 0 1 1 1 0 1 1 1 2 2 1 1 2 3 3 3 4 4
3 3 3 2 3 3 2 2 2 1 1 1 1 2 2 2 2 2 1 1 1 1 1 1 1 1 1 1 1 1 1 1 1 2 2 2 1 1 1 3 3 3 4
3 2 2 2 2 2 2 2 2 1 1 1 1 1 2 2 2 2 2 1 2 2 2 1 1 1 1 1 1 1 1 2 2 2 2 2 2 2 2 2 2 3 4
3 3 2 2 2 2 1 1 1 1 1 1 1 1 2 2 3 3 2 2 2 2 2 1 1 1 1 1 1 2 2 2 2 2 2 1 1 2 2 2 2 1 3
3 3 3 2 2 1 1 1 2 2 2 1 1 1 1 1 2 3 2 3 3 2 3 2 2 2 1 1 1 2 2 3 2 2 2 2 2 2 2 2 2 2 2
2 2 3 2 2 2 2 2 2 2 2 2 1 1 2 2 2 2 3 3 3 3 3 3 2 1 1 1 2 2 2 3 2 2 2 2 2 2 2 2 2 2 2
2 2 2 2 2 2 2 1 1 1 1 1 1 2 2 3 3 2 3 3 3 4 4 4 4 3 2 2 2 2 2 2 1 2 3 2 2 2 2 2 2 2 3
3 2 2 2 2 2 1 1 2 2 2 3 2 2 2 2 2 2 3 3 3 3 4 4 4 3 3 3 2 2 3 2 2 2 2 2 3 3 3 2 2 2 3
2 2 2 2 2 2 1 1 2 2 2 2 2 2 2 2 2 2 3 3 3 3 4 4 4 4 3 3 3 2 2 2 3 4 4 3 2 2 3 3 3 3 3
2 2 2 2 2 2 2 2 2 2 2 2 2 2 2 2 2 2 3 3 3 3 4 4 4 5 4 4 4 3 3 3 3 4 4 4 4 3 3 3 3 3 3
Wind_Direction
160 156 157 135 123 112 105 98 94 100 106 105 107 106 104 100 95 90 89 89 92 93 94 92 89 87 84 84 84 83 82 79 76 74 75 76 77 79 78 72 73 80 79
151 159 150 137 127 113 105 100 94 99 106 106 104 102 103 101 98 94 89 87 91 94 93 91 88 86 85 83 84 85 84 79 73 69 73 83 80 79 77 71 61 72 79
140 152 157 139 126 114 106 102 98 96 107 108 105 103 99 99 100 96 93 89 89 93 92 91 89 87 87 84 84 84 83 79 72 67 78 90 86 79 77 74 70 72 74
141 150 158 135 128 118 111 105 97 96 106 110 109 107 102 95 93 93 90 90 88 87 89 91 91 90 88 88 88 86 84 81 73 66 90 84 85 79 75 72 71 69 67
138 149 139 122 127 123 117 111 102 95 102 110 109 107 103 95 88 88 91 88 84 81 84 88 90 91 87 89 91 90 85 83 77 96 88 86 84 78 73 72 69 66 64
137 146 136 110 120 123 121 118 108 98 104 110 105 103 101 94 89 86 87 87 85 81 83 87 87 89 87 85 91 91 87 82 112 99 89 89 85 79 74 73 72 66 61
139 141 141 107 109 113 115 117 112 101 101 106 102 99 94 90 89 87 82 81 83 83 81 85 83 86 87 83 83 86 83 64 89 92 87 86 78 74 75 72 70 68 64
138 137 138 105 96 97 99 99 100 97 89 97 97 93 93 89 89 88 83 80 79 81 77 78 78 79 89 86 79 78 71 55 97 91 86 84 66 62 70 66 62 64 60
128 134 144 151 135 98 83 81 82 84 86 83 79 80 83 84 86 83 81 82 79 79 76 74 75 72 80 86 82 76 64 35 83 83 79 75 53 44 51 51 48 48 48
98 113 138 158 161 162 144 89 81 83 86 85 80 75 75 78 86 81 83 81 82 81 77 73 76 76 75 80 78 71 66 51 75 75 71 67 47 47 46 39 30 26 27
75 69 73 145 173 171 167 127 117 101 89 97 101 86 92 114 117 108 87 78 81 81 81 75 74 76 78 86 77 65 80 69 64 50 45 43 37 39 48 45 37 30 27
276 303 332 291 274 208 174 170 177 166 148 160 153 142 147 132 119 107 86 79 79 79 86 79 74 86 76 87 87 87 71 57 61 56 41 34 29 35 41 36 32 22 14
278 305 324 313 287 259 218 193 192 183 174 181 166 153 135 121 135 125 121 111 106 102 101 92 81 61 51 44 47 55 42 39 43 55 42 34 23 16 19 24 19 12 359
305 307 321 320 308 288 279 228 199 189 187 183 183 173 160 143 156 156 147 150 139 129 115 96 80 61 53 50 43 43 44 33 31 23 33 24 6 356 5 11 4 351 340
301 300 309 309 306 284 266 273 227 203 202 195 186 180 177 165 174 179 172 158 142 132 139 133 114 104 89 65 53 45 28 22 18 0 22 28 359 347 342 347 344 341 339
302 303 301 285 280 278 252 250 256 235 209 203 194 185 190 183 177 181 169 161 149 140 137 154 147 160 144 103 66 24 355 340 347 327 327 15 8 347 341 334 336 340 340
315 318 319 301 281 261 252 244 239 240 225 210 206 194 187 191 184 184 181 173 161 155 147 138 130 146 133 159 176 239 291 314 323 315 314 316 308 347 343 336 340 338 331
314 317 324 331 311 285 265 254 245 227 220 215 212 196 195 195 190 186 188 182 170 168 172 168 168 183 190 222 228 232 249 269 290 298 301 310 308 307 337 347 339 331 321
316 312 316 318 312 304 284 257 250 231 217 217 216 209 204 200 198 193 196 182 178 182 184 183 195 215 228 250 257 255 252 257 272 273 285 303 308 306 303 334 334 333 324
332 322 313 320 324 314 294 262 240 234 233 231 239 260 236 210 203 196 189 182 184 189 188 192 196 212 251 262 265 263 259 261 265 270 275 288 294 294 297 306 300 321 331
347 344 332 319 326 323 279 258 247 242 231 230 244 255 247 237 221 204 192 187 194 201 200 194 191 189 220 251 251 258 247 243 248 249 259 276 284 289 291 295 306 314 297
341 337 332 314 302 290 282 267 267 257 239 237 247 252 254 244 230 216 209 203 200 203 200 196 189 191 200 221 248 259 253 226 223 243 255 263 272 270 270 279 291 298 298
321 319 325 330 319 303 290 276 302 271 260 251 261 253 253 249 235 227 218 216 209 208 206 202 203 202 202 213 245 256 252 253 280 229 247 261 260 253 254 264 283 291 292
300 312 316 323 326 324 303 265 241 243 246 245 246 244 247 243 242 236 226 217 213 219 215 210 213 218 209 211 223 258 277 290 263 260 233 251 266 260 259 267 270 272 279
303 312 318 328 329 323 305 283 259 269 277 266 245 238 240 239 239 241 238 224 216 221 222 216 214 218 217 218 216 225 242 257 263 258 265 265 264 253 256 265 271 268 269
320 325 329 329 330 327 313 296 278 275 290 292 265 248 245 246 240 245 246 237 228 226 224 222 221 219 220 223 224 224 229 234 236 242 257 269 274 275 270 259 264 268 270